[Iaude] MPEC K70: 2015 EE7 [a=1.70,e=0.41,i=27.3,H=20.2]

mpec at marsden.cfa.harvard.edu mpec at marsden.cfa.harvard.edu
Tue May 19 11:01:43 EDT 2020


M.P.E.C. 2020-K70                                  Issued 2020 May 19, 15:00 UT

     The Minor Planet Electronic Circulars contain information on unusual
         minor planets and routine data on comets.  They are published
    on behalf of Division F of the International Astronomical Union by the
          Minor Planet Center, Smithsonian Astrophysical Observatory,
                          Cambridge, MA 02138, U.S.A.

             Prepared using the Tamkin Foundation Computer Network

                              MPC at CFA.HARVARD.EDU
            URL https://www.minorplanetcenter.net/    ISSN 1523-6714

                                    2015 EE7                                    


                            Revision to MPEC 2015-F7                            

Additional Observations:
     K15E07E KC2018 11 10.52381503 44 04.828+55 35 48.49         24.05GVEK070T12
     K15E07E KC2018 11 14.60040603 33 48.870+55 58 51.79         24.39GVEK070T12

Observer details:
T12 Mauna Kea-UH/Tholen NEO Follow-Up (2.24-m).  Observers D. Hung, D. J. 
   Tholen, D. Fohring.  Measurer D. J. Tholen.  2.24-m f/10.1 reflector + CCD.

First and last observations above in comparison with prediction:
Residuals in seconds of arc, reference and Delta-T
181110 T12 12.2-  6.8-    181114 T12 12.1-  7.5-    MPO419517   -0.01 days

Orbital elements:
2015 EE7                                                 Earth MOID = 0.0672 AU
Epoch 2020 May 31.0 TT = JDT 2459000.5                  Veres
M 100.86452              (2000.0)            P               Q
n   0.44397945     Peri.  219.17932     -0.67315208     +0.73570191
a   1.7017436      Node     9.39431     -0.50888772     -0.38736402
e   0.4108353      Incl.   27.31134     -0.53656273     -0.55560042
P   2.22           H   20.2           G   0.15           U   1
Residuals in seconds of arc
150314 703  0.3+  0.1-    150323 H15  0.1-  0.4+    150331 H21  0.0   0.1+
150314 703  0.1+  0.3-    150323 246  0.6+  0.1+    150331 H21  0.0   0.0
150314 703  0.2+  1.1+    150323 246  0.2+  0.0     150331 H21  0.1+  0.1+
150314 703  0.1-  0.1-    150323 246  0.1-  0.2+    150331 H21  0.0   0.1-
150314 703 (1.6-  1.0-)   150323 246  0.1-  0.2+    150331 H21  0.1+  0.2+
150314 703  0.5+  0.3+    150323 246  0.0   0.1+    150331 H21  0.0   0.1+
150314 703  0.5+  0.3-    150323 246  0.0   0.0     150401 688  0.0   0.0
150314 703  0.4+  0.5+    150323 246  0.1+  0.1-    150401 688  0.0   0.1+
150314 703  0.6+  0.2+    150323 246  0.2-  0.2+    150401 688  0.2-  0.1+
150314 703  0.2-  0.2+    150323 246  0.0   0.0     150401 688  0.1+  0.2+
150314 703  0.1-  0.3+    150324 703  0.0   0.3+    150401 688  0.2-  0.0
150314 703  0.6+  0.2+    150324 703  0.1-  0.1+    150401 H21  0.2+  0.2-
150315 G48  0.1-  0.1-    150324 703  0.1+  0.1-    150401 H21  0.0   0.1+
150315 G48  0.1-  0.3+    150324 703  0.3+  0.2+    150401 H21  0.0   0.2-
150315 G48  0.2+  0.1-    150325 I15  0.1+  0.3+    150401 H21  0.0   0.3-
150315 G48  0.4-  0.6+    150325 I15  0.1-  0.0     150401 H21  0.1+  0.7-
150315 G48  0.1+  0.0     150325 I15  0.4-  0.1+    150401 H21  0.5+  0.1+
150315 I89  0.1-  0.1-    150326 C23  0.3-  0.3-    150401 H21  0.1-  0.1-
150315 G48  0.0   0.5-    150326 C23  0.0   0.2-    150401 A48  0.9-  0.3-
150315 I89  0.7-  0.6-    150326 C23  0.2+  0.1+    150401 A48  0.2+  0.4-
150315 I89  0.1-  0.2-    150326 C23  0.1+  0.2-    150401 A48  1.3+  0.8+
150315 H36  0.1+  0.1-    150326 168  0.1+  0.4+    150401 A48  0.4+  0.6-
150315 H36  0.1-  0.0     150326 168  0.2+  0.0     150401 A53  0.2+  0.0
150315 H36  0.2-  0.1-    150326 168  0.0   0.3+    150401 A53  0.5+  0.0
150315 H21  0.3-  0.4-    150327 C23  0.0   0.0     150401 A53  0.0   0.0
150315 H21  0.3-  0.4-    150327 C23  0.5+  0.3+    150401 A53  0.5+  0.6+
150315 H21  0.4-  0.5-    150327 C23  0.2-  0.2-    150401 A53  0.0   0.1+
150315 448  0.1-  0.1-    150327 C23  0.7-  1.2-    150401 203  0.0   0.0
150315 G96  0.0   0.1+    150327 H21  0.2+  0.2-    150401 A53  0.5+  0.4+
150315 G96  0.2+  0.1+    150327 H21  0.1+  0.2-    150401 203  0.0   0.0
150315 448  0.2-  0.0     150327 H21  0.2+  0.2-    150402 C23  0.5-  0.1+
150315 G96  0.1-  0.0     150327 H21  0.2+  0.2-    150402 C23  0.7+  0.4+
150315 G96  0.1-  0.1+    150327 H21  0.0   0.2-    150402 C23  0.1-  0.3-
150315 448  0.1+  0.5-    150327 H21  0.1+  0.1-    150402 C23  0.3+  0.2-
150315 O75  0.2+  0.1+    150327 H21  0.0   0.1-    150402 K38  0.1+  0.1-
150315 O75  0.2+  0.2-    150327 168  0.0   0.0     150402 K38  0.2-  0.1-
150315 O75  0.0   0.4+    150327 C23  0.6+  0.1+    150402 K38  0.2-  0.0
150315 O75  0.3+  0.6-    150327 C23  0.4-  0.4-    150402 K38  0.2-  0.1-
150316 H01  0.2-  0.0     150327 C23  0.4-  0.1-    150402 K38  0.0   0.1+
150316 H01  0.3-  0.0     150327 C23  0.3-  0.2-    150402 K38  0.2-  0.1-
150316 H01  0.1-  0.0     150327 168  0.1+  0.0     150402 K38  0.2-  0.1-
150316 H01  0.2-  0.2+    150328 204  0.3-  0.2-    150402 160  0.2-  0.0
150316 900  1.3+  0.6-    150328 204  0.0   0.2-    150402 160  0.1-  0.4+
150316 900  0.5-  0.7+    150328 204  0.2-  0.2-    150402 160  0.1+  0.2-
150316 900  0.0   1.1-    150328 204  0.1-  0.0     150404 C23  0.1+  0.3+
150318 511  0.7+  0.0     150328 204  0.3-  0.2-    150404 C23  0.2+  0.0
150318 511  0.0   0.1+    150328 H21  0.0   0.2-    150404 C23  0.1+  0.4+
150318 511  0.2+  0.1-    150328 H21  0.0   0.2-    150404 C23  0.0   0.8+
150318 511  0.2+  0.2-    150328 H21  0.1+  0.0     150404 C23  0.0   0.2-
150318 511  0.5+  0.0     150328 H21  0.1-  0.2-    150405 C23  0.0   0.3-
150318 511  0.1+  0.1-    150328 H21  0.1-  0.1-    150405 C23  0.2-  0.1-
150318 511  0.1+  0.2-    150328 246  0.1-  0.3-    150405 C23  0.5+  0.1-
150318 511  0.2+  0.2-    150328 246  0.0   0.3-    150405 C23  0.1+  0.2+
150318 511  0.2-  0.4-    150328 246  0.1+  0.3-    150405 C23  0.7+  0.7+
150318 511  0.4+  0.1-    150328 246  0.1-  0.1-    150406 926  0.2+  0.0
150318 G56  0.1+  0.2+    150328 246  0.0   0.1+    150406 926  0.3+  0.2+
150318 G56  0.3-  0.6+    150328 246  0.1-  0.3-    150406 926  0.0   0.3+
150318 G56  0.2-  0.8+    150328 246  0.0   0.3-    150406 160  0.5-  1.0+
150318 C47  0.0   0.1-    150328 246  0.1+  0.2-    150406 160  1.2-  0.8+
150318 C47  0.2-  0.1+    150329 H21  0.0   0.0     150406 160  0.4-  0.1-
150318 C47  0.0   0.0     150329 H21  0.0   0.1-    150407 A53  0.0   0.0
150318 246  0.2-  0.3+    150329 H21  0.1-  0.0     150407 A53  0.1+  0.1-
150318 246  0.2-  0.1+    150329 H21  0.0   0.1-    150407 A53  0.3-  0.3+
150318 246  0.1+  0.0     150329 H21  0.2-  0.1+    150407 A53  0.1-  0.4+
150318 246  0.1-  0.1+    150329 H21  0.0   0.1+    150407 A53  0.3+  0.3+
150318 246  0.0   0.4+    150329 H21  0.1+  0.0     150407 J69  0.4-  0.5-
150318 246  0.0   0.2+    150329 H45  0.4-  0.0     150407 J69  0.5-  0.7-
150318 246  0.1+  0.2+    150329 H45  0.0   0.3+    150407 J69  0.5-  0.8-
150318 246  0.3-  0.3+    150329 H45  0.1-  0.1+    150410 926  0.0   0.3+
150318 C47  0.0   0.1+    150329 H45  0.0   0.0     150410 926  0.2+  0.3+
150319 246  0.2-  0.3+    150329 H45  0.1+  0.2+    150410 926  0.1+  0.5+
150319 246  0.4-  0.1+    150329 H45  0.5+  0.3+    150418 C51  0.3+  0.7-
150319 246  0.5-  0.1+    150329 H45  0.2+  0.3+    150418 C51  0.3+  0.1-
150319 246  0.2-  0.2+    150329 H45  0.2-  0.2-    150418 C51  0.5-  0.7-
150319 246  0.2-  0.2+    150330 H21  0.1-  0.2-    150418 C51  0.7-  1.1-
150319 246  0.4-  0.1+    150330 H21  0.1+  0.0     150418 C51  0.4-  0.7-
150319 246  0.6-  0.1+    150330 H21  0.1+  0.1-    150418 C51  0.1-  1.1-
150320 511  0.0   0.4-    150330 H21  0.0   0.1-    150420 807  0.2+  0.2+
150320 511  0.0   0.0     150330 H21  0.1+  0.0     150420 807  0.1-  0.2+
150320 511  0.1-  0.3-    150330 H21  0.0   0.0     150420 807  0.0   0.3+
150320 511  0.2-  0.5-    150330 H21  0.1+  0.1-    150423 807  0.2+  0.1+
150320 511  0.1+  0.2-    150330 C77  0.9+  0.3-    150423 807  0.2+  0.2+
150320 511  0.2-  0.2-    150330 C77  0.7-  0.3+    150423 807  0.1-  0.3+
150320 511  0.4+  0.2-    150330 C77  0.2+  0.4+    150424 807  0.3+  0.0
150320 511  0.2+  0.1-    150330 K61  0.1-  0.1-    150424 807  0.2+  0.0
150320 C47  0.2+  0.1-    150330 K61  0.0   0.3+    150424 807  0.2+  0.1+
150320 C47  0.1-  0.1-    150330 K61  0.2-  0.1-    150429 807  0.4+  0.3+
150320 C47  0.0   0.4+    150331 K38  0.0   0.1+    150429 807  0.1+  0.2-
150320 C47  0.1+  0.0     150331 K38  0.3+  0.1+    150429 807  0.2-  0.5-
150320 C47  0.2+  0.1-    150331 K38  0.2-  0.0     150710 474  0.0   0.0
150322 C23  0.7-  0.5-    150331 K38  0.1-  0.5-    150710 474  0.1+  0.1+
150322 C23  0.3-  0.2-    150331 688  0.0   0.2+    150710 474  0.0   0.1+
150322 C23  0.3-  0.3-    150331 688  0.1-  0.2+    181110 T12  0.0   0.0
150322 C23  0.5-  0.1-    150331 688  0.0   0.3+    181114 T12  0.0   0.0
150323 H15  0.4-  0.3+    150331 688  0.2-  0.2+
150323 H15  0.0   0.4+    150331 688  0.1-  0.2+

Ephemeris:
2015 EE7                 a,e,i = 1.70, 0.41, 27                  q = 1.0026
Date    TT    R. A. (2000) Decl.     Delta      r    Elong.  Phase     V
2020 04 19    00 36 59.3 -00 34 11   2.7827  1.8821    21.3    11.2    24.5
...
2020 05 04    01 02 02.5 +03 32 53   2.7803  1.9508    28.2    14.1    24.7
...
2020 05 12    01 14 48.0 +05 38 29   2.7669  1.9854    32.1    15.7    24.8
...
2020 05 18    01 24 06.9 +07 10 04   2.7512  2.0105    35.2    16.8    24.8
2020 05 19    01 25 38.7 +07 25 08   2.7481  2.0146    35.7    17.0    24.8
2020 05 20    01 27 10.2 +07 40 07   2.7449  2.0187    36.2    17.2    24.8
...
2020 05 26    01 36 11.5 +09 08 52   2.7228  2.0427    39.3    18.3    24.9
...
2020 06 03    01 47 51.9 +11 04 03   2.6862  2.0735    43.6    19.7    24.9
...
2020 06 18    02 08 36.8 +14 31 28   2.5961  2.1275    52.0    22.1    25.0

A. U. Tomatic                (C) Copyright 2020 MPC           M.P.E.C. 2020-K70




More information about the Iaude mailing list